Weather History for Middleton, WI

Change the Weather History Date:

Wednesday, May 16, 2012

  Actual Average (KMSN) Record (KMSN)
Temperature  
Mean Temperature 55 °F 57 °F  
Max Temperature 85 °F 68 °F 87 °F (1951)
Min Temperature 40 °F 46 °F 27 °F (1997)
Degree Days  
Heating Degree Days 10 8  
Month to date heating degree days 168  
Since 1 July heating degree days 7175  
Cooling Degree Days 0 1  
Month to date cooling degree days 6  
Year to date cooling degree days 10  
Growing Degree Days 5 (Base 50)    
Moisture  
Dew Point 37 °F    
Average Humidity 52    
Maximum Humidity 93    
Minimum Humidity 23    
Precipitation  
Precipitation 0.00 in 0.11 in 1.64 in (1999)
Month to date precipitation 1.74  
Year to date precipitation 10.02  
Snow  
Snow 0.00 in 0.00 in T in (1940)
Month to date snowfall 0.2  
Since 1 July snowfall 50.9  
Snow Depth -    
Sea Level Pressure  
Sea Level Pressure 30.09 in    
Wind  
Wind Speed 5 mph (NNE)    
Max Wind Speed 14 mph    
Max Gust Speed 20 mph    
Visibility 10 miles    
Events      
T = Trace of Precipitation, MM = Missing Value Source: NWS Daily Summary

Daily Weather History Graph

Daily Weather History Graph

Search for Another Location

Airport:

Trip Planner

Search our weather history database for the weather conditions in past years. The results will help you decide how hot, cold, wet, or windy it might be!

Date:

Astronomy

May. 16, 2012 Rise Set
Actual Time 5:33 AM CDT 8:16 PM CDT
Civil Twilight 5:00 AM CDT 8:49 PM CDT
Nautical Twilight 4:18 AM CDT 9:31 PM CDT
Astronomical Twilight 3:31 AM CDT 10:19 PM CDT
Moon 3:08 AM CDT (5/16) 4:27 PM CDT (5/16)
Length of Visible Light 15h 49m
Length of Day
14h 43m
Waning Crescent, 16% of the Moon is Illuminated
May 16
Waning Crescent
May 20
New
May 28
First Quarter
Jun 4
Full
Jun 11
Last Quarter

Hourly Weather History & Observations

Time (CDT) Temp. Dew Point Humidity Pressure Visibility Wind Dir Wind Speed Gust Speed Precip Events Conditions
12:15 AM 57.4 °F 43.3 °F 59% 30.00 in 10.0 mi East 11.5 mph 19.6 mph N/A   Clear
12:35 AM 55.6 °F 43.3 °F 63% 30.01 in 10.0 mi ENE 9.2 mph 17.3 mph N/A   Clear
12:55 AM 54.3 °F 43.3 °F 66% 30.02 in 10.0 mi East 13.8 mph - N/A   Clear
1:15 AM 53.2 °F 42.8 °F 68% 30.03 in 10.0 mi ENE 11.5 mph - N/A   Clear
1:35 AM 52.0 °F 42.6 °F 70% 30.03 in 10.0 mi ENE 5.8 mph - N/A   Clear
1:55 AM 50.2 °F 42.4 °F 75% 30.04 in 10.0 mi NE 6.9 mph - N/A   Clear
2:35 AM 48.4 °F 41.2 °F 76% 30.05 in 10.0 mi NE 4.6 mph - N/A   Clear
2:55 AM 46.9 °F 40.6 °F 79% 30.05 in 10.0 mi NE 5.8 mph - N/A   Clear
3:15 AM 46.6 °F 40.1 °F 78% 30.05 in 10.0 mi ENE 5.8 mph - N/A   Clear
3:35 AM 46.8 °F 39.7 °F 77% 30.06 in 10.0 mi NE 3.5 mph - N/A   Clear
3:55 AM 46.0 °F 39.6 °F 78% 30.06 in 10.0 mi Calm Calm - N/A   Clear
4:15 AM 45.3 °F 39.6 °F 80% 30.06 in 10.0 mi Calm Calm - N/A   Clear
4:35 AM 45.1 °F 39.4 °F 80% 30.06 in 10.0 mi Calm Calm - N/A   Clear
4:55 AM 45.0 °F 38.8 °F 79% 30.07 in 10.0 mi Calm Calm - N/A   Clear
5:15 AM 43.2 °F 39.0 °F 85% 30.07 in 10.0 mi Calm Calm - N/A   Clear
5:35 AM 42.1 °F 39.0 °F 89% 30.08 in 10.0 mi Calm Calm - N/A   Clear
5:55 AM 41.0 °F 38.5 °F 91% 30.09 in 10.0 mi Calm Calm - N/A   Clear
6:15 AM 40.3 °F 38.3 °F 93% 30.10 in 10.0 mi Calm Calm - N/A   Clear
6:35 AM 42.3 °F 40.1 °F 92% 30.11 in 10.0 mi Calm Calm - N/A   Clear
6:55 AM 45.1 °F 42.6 °F 91% 30.12 in 10.0 mi Calm Calm - N/A   Clear
7:15 AM 47.7 °F 43.0 °F 84% 30.13 in 10.0 mi Calm Calm - N/A   Clear
7:35 AM 50.0 °F 40.8 °F 71% 30.13 in 10.0 mi Calm Calm - N/A   Clear
7:55 AM 51.4 °F 39.9 °F 65% 30.13 in 10.0 mi Calm Calm - N/A   Clear
8:15 AM 52.7 °F 39.7 °F 61% 30.13 in 10.0 mi Calm Calm - N/A   Clear
8:35 AM 54.3 °F 40.1 °F 59% 30.14 in 10.0 mi Calm Calm - N/A   Clear
8:55 AM 55.8 °F 40.5 °F 56% 30.14 in 10.0 mi Calm Calm - N/A   Clear
9:15 AM 57.0 °F 39.6 °F 52% 30.14 in 10.0 mi Calm Calm - N/A   Clear
9:35 AM 58.6 °F 38.7 °F 47% 30.15 in 10.0 mi NE 4.6 mph - N/A   Clear
9:55 AM 59.4 °F 35.6 °F 41% 30.14 in 10.0 mi Calm Calm - N/A   Clear
10:15 AM 61.0 °F 34.3 °F 37% 30.14 in 10.0 mi NE 3.5 mph - N/A   Clear
10:35 AM 61.3 °F 32.7 °F 34% 30.14 in 10.0 mi Calm Calm - N/A   Clear
10:55 AM 61.7 °F 33.3 °F 34% 30.14 in 10.0 mi NE 5.8 mph 9.2 mph N/A   Clear
11:15 AM 62.4 °F 33.4 °F 34% 30.14 in 10.0 mi NW 8.1 mph - N/A   Clear
11:55 AM 63.0 °F 33.8 °F 34% 30.14 in 10.0 mi East 3.5 mph - N/A   Clear
12:15 PM 63.7 °F 34.7 °F 34% 30.13 in 10.0 mi NE 4.6 mph - N/A   Clear
12:35 PM 64.4 °F 34.2 °F 32% 30.13 in 10.0 mi NNE 3.5 mph - N/A   Clear
12:55 PM 65.3 °F 35.2 °F 33% 30.12 in 10.0 mi North 6.9 mph - N/A   Clear
1:15 PM 65.5 °F 33.6 °F 31% 30.11 in 10.0 mi Calm Calm - N/A   Clear
1:35 PM 66.0 °F 32.2 °F 28% 30.11 in 10.0 mi WNW 4.6 mph - N/A   Clear
1:55 PM 66.4 °F 31.3 °F 27% 30.10 in 10.0 mi WSW 3.5 mph - N/A   Clear
2:15 PM 67.5 °F 33.1 °F 28% 30.10 in 10.0 mi North 8.1 mph - N/A   Clear
2:55 PM 68.4 °F 32.5 °F 27% 30.09 in 10.0 mi NNW 9.2 mph - N/A   Clear
3:15 PM 68.7 °F 31.8 °F 25% 30.09 in 10.0 mi NW 3.5 mph - N/A   Clear
3:35 PM 69.3 °F 32.5 °F 26% 30.08 in 10.0 mi NNW 6.9 mph - N/A   Clear
3:55 PM 69.4 °F 31.5 °F 24% 30.08 in 10.0 mi NNW 8.1 mph - N/A   Clear
4:15 PM 69.4 °F 30.0 °F 23% 30.08 in 10.0 mi NNW 3.5 mph - N/A   Clear
4:35 PM 69.8 °F 31.1 °F 24% 30.08 in 10.0 mi NNW 6.9 mph - N/A   Clear
4:55 PM 70.0 °F 32.0 °F 25% 30.08 in 10.0 mi WNW 8.1 mph - N/A   Clear
5:15 PM 69.8 °F 31.6 °F 24% 30.08 in 10.0 mi West 3.5 mph - N/A   Clear
5:35 PM 69.6 °F 30.4 °F 23% 30.07 in 10.0 mi North 6.9 mph - N/A   Clear
5:55 PM 69.3 °F 31.8 °F 25% 30.07 in 10.0 mi NW 6.9 mph - N/A   Clear
6:15 PM 69.1 °F 30.0 °F 23% 30.07 in 10.0 mi Calm Calm - N/A   Clear
6:35 PM 68.7 °F 31.5 °F 25% 30.07 in 10.0 mi NNW 4.6 mph - N/A   Clear
6:55 PM 68.2 °F 30.7 °F 25% 30.08 in 10.0 mi NW 3.5 mph - N/A   Clear
7:15 PM 67.6 °F 30.6 °F 25% 30.08 in 10.0 mi Calm Calm - N/A   Clear
7:35 PM 66.7 °F 31.3 °F 27% 30.08 in 10.0 mi North 4.6 mph - N/A   Clear
7:55 PM 65.1 °F 32.4 °F 29% 30.08 in 10.0 mi North 3.5 mph - N/A   Clear
8:15 PM 62.1 °F 36.1 °F 38% 30.08 in 10.0 mi Calm Calm - N/A   Clear
8:35 PM 58.5 °F 38.8 °F 48% 30.08 in 10.0 mi Calm Calm - N/A   Clear
8:55 PM 55.8 °F 40.5 °F 56% 30.09 in 10.0 mi Calm Calm - N/A   Clear
9:15 PM 54.5 °F 40.6 °F 60% 30.09 in 10.0 mi Calm Calm - N/A   Clear
9:35 PM 53.2 °F 39.7 °F 60% 30.09 in 10.0 mi Calm Calm - N/A   Clear
9:55 PM 52.2 °F 40.1 °F 64% 30.10 in 10.0 mi Calm Calm - N/A   Clear
10:15 PM 51.3 °F 39.4 °F 64% 30.10 in 10.0 mi Calm Calm - N/A   Clear
10:35 PM 50.5 °F 39.6 °F 66% 30.10 in 10.0 mi Calm Calm - N/A   Clear
10:55 PM 49.6 °F 39.6 °F 68% 30.10 in 10.0 mi Calm Calm - N/A   Clear
11:15 PM 48.6 °F 39.6 °F 71% 30.10 in 10.0 mi ESE 6.9 mph - N/A   Clear
11:35 PM 51.4 °F 40.3 °F 66% 30.10 in 10.0 mi SSE 4.6 mph - N/A   Clear
11:55 PM 53.1 °F 38.3 °F 57% 30.10 in 10.0 mi SSE 5.8 mph - N/A   Clear